TimeEDT,TemperatureF,Dew PointF,Humidity,Sea Level PressureIn,VisibilityMPH,Wind Direction,Wind SpeedMPH,Gust SpeedMPH,PrecipitationIn,Events,Conditions,WindDirDegrees,DateUTC
12:08 AM,73.4,73.4,100,30.18,10.0,East,4.6,-,N/A,,Overcast,100,2012-10-04 04:08:00
12:45 AM,73.4,73.4,100,30.18,10.0,East,4.6,-,N/A,,Scattered Clouds,100,2012-10-04 04:45:00
12:53 AM,73.9,73.0,97,30.18,10.0,East,3.5,-,N/A,,Partly Cloudy,90,2012-10-04 04:53:00
1:53 AM,73.0,72.0,96,30.17,10.0,East,4.6,-,N/A,,Clear,100,2012-10-04 05:53:00
2:53 AM,73.0,72.0,96,30.16,10.0,Calm,Calm,-,N/A,,Clear,0,2012-10-04 06:53:00
3:53 AM,73.0,72.0,96,30.14,10.0,Calm,Calm,-,N/A,,Clear,0,2012-10-04 07:53:00
4:53 AM,73.0,72.0,96,30.14,10.0,East,4.6,-,N/A,,Clear,80,2012-10-04 08:53:00
5:53 AM,72.0,71.1,97,30.17,10.0,North,3.5,-,N/A,,Clear,10,2012-10-04 09:53:00
6:53 AM,73.0,72.0,96,30.18,10.0,ENE,4.6,-,N/A,,Clear,60,2012-10-04 10:53:00
7:12 AM,71.6,71.6,100,30.19,10.0,Calm,Calm,-,N/A,,Partly Cloudy,0,2012-10-04 11:12:00
7:53 AM,73.0,72.0,96,30.19,10.0,North,3.5,-,N/A,,Clear,360,2012-10-04 11:53:00
8:53 AM,75.9,73.0,91,30.19,10.0,East,5.8,-,N/A,,Clear,90,2012-10-04 12:53:00
9:53 AM,80.1,75.0,85,30.20,10.0,ESE,6.9,-,N/A,,Clear,120,2012-10-04 13:53:00
10:53 AM,82.9,77.0,82,30.19,10.0,SE,5.8,-,N/A,,Scattered Clouds,140,2012-10-04 14:53:00
11:06 AM,82.4,77.0,84,30.20,10.0,East,5.8,-,N/A,,Mostly Cloudy,90,2012-10-04 15:06:00
11:20 AM,82.4,77.0,84,30.20,10.0,SE,4.6,-,N/A,,Mostly Cloudy,130,2012-10-04 15:20:00
11:36 AM,84.2,75.2,74,30.20,10.0,Variable,5.8,-,N/A,,Scattered Clouds,0,2012-10-04 15:36:00
11:53 AM,84.9,75.9,74,30.19,10.0,SE,3.5,-,N/A,,Mostly Cloudy,140,2012-10-04 15:53:00
12:00 PM,86.0,75.2,70,30.20,10.0,South,5.8,-,N/A,,Mostly Cloudy,170,2012-10-04 16:00:00
12:25 PM,87.8,75.2,66,30.20,10.0,South,4.6,-,N/A,,Scattered Clouds,180,2012-10-04 16:25:00
12:53 PM,88.0,75.9,67,30.18,10.0,East,4.6,-,N/A,,Mostly Cloudy,90,2012-10-04 16:53:00
1:00 PM,89.6,75.2,62,30.18,10.0,Calm,Calm,-,N/A,,Mostly Cloudy,0,2012-10-04 17:00:00
1:09 PM,89.6,75.2,62,30.18,10.0,SE,4.6,-,N/A,,Mostly Cloudy,130,2012-10-04 17:09:00
1:17 PM,89.6,73.4,59,30.17,10.0,ESE,5.8,-,N/A,,Scattered Clouds,120,2012-10-04 17:17:00
1:53 PM,89.1,73.9,61,30.15,10.0,Variable,3.5,-,N/A,,Mostly Cloudy,0,2012-10-04 17:53:00
2:53 PM,89.1,73.0,59,30.12,10.0,Variable,3.5,-,N/A,,Clear,0,2012-10-04 18:53:00
3:53 PM,89.1,73.0,59,30.09,10.0,NNW,3.5,-,N/A,,Partly Cloudy,340,2012-10-04 19:53:00
4:26 PM,89.6,73.4,59,30.08,10.0,Variable,5.8,-,N/A,Thunderstorm,Partly Cloudy,0,2012-10-04 20:26:00
4:41 PM,89.6,75.2,62,30.09,10.0,NW,10.4,-,N/A,,Mostly Cloudy,310,2012-10-04 20:41:00
4:53 PM,87.1,75.0,67,30.09,10.0,NW,11.5,-,N/A,,Overcast,320,2012-10-04 20:53:00
5:32 PM,84.2,75.2,74,30.09,10.0,WNW,8.1,-,0.13,Rain-Thunderstorm,Light Rain,300,2012-10-04 21:32:00
6:15 PM,73.4,69.8,88,30.16,1.5,South,19.6,29.9,0.14,Rain-Thunderstorm,Heavy Thunderstorms and Rain,190,2012-10-04 22:15:00
6:20 PM,71.6,71.6,100,30.16,0.8,South,23.0,32.2,0.24,Rain-Thunderstorm,Heavy Thunderstorms and Rain,170,2012-10-04 22:20:00
6:23 PM,71.6,71.6,100,30.15,0.8,SSE,21.9,32.2,0.31,Rain-Thunderstorm,Heavy Thunderstorms and Rain,160,2012-10-04 22:23:00
6:31 PM,71.6,71.6,100,30.18,-9999.0,SSE,18.4,27.6,0.47,Thunderstorm,Thunderstorm,160,2012-10-04 22:31:00
6:38 PM,69.8,69.8,100,30.17,-9999.0,SE,18.4,26.5,0.73,Thunderstorm,Thunderstorm,140,2012-10-04 22:38:00
6:53 PM,70.0,69.1,97,30.18,1.5,ESE,12.7,-,1.22,Rain-Thunderstorm,Heavy Thunderstorms and Rain,110,2012-10-04 22:53:00
7:05 PM,69.8,69.8,100,30.17,1.8,East,10.4,-,0.24,Rain-Thunderstorm,Heavy Thunderstorms and Rain,90,2012-10-04 23:05:00
7:07 PM,69.8,69.8,100,30.17,2.5,East,9.2,-,0.26,Rain-Thunderstorm,Heavy Thunderstorms and Rain,90,2012-10-04 23:07:00
7:14 PM,69.8,69.8,100,30.17,5.0,NNE,11.5,-,0.30,Rain-Thunderstorm,Heavy Thunderstorms and Rain,30,2012-10-04 23:14:00
7:53 PM,71.1,69.1,93,30.17,10.0,ENE,11.5,-,0.36,Rain,Light Rain,70,2012-10-04 23:53:00
8:42 PM,71.6,69.8,94,30.18,10.0,ENE,11.5,-,0.03,,Mostly Cloudy,60,2012-10-05 00:42:00
8:53 PM,71.1,70.0,96,30.17,10.0,ENE,10.4,-,0.03,,Partly Cloudy,60,2012-10-05 00:53:00
9:53 PM,71.1,70.0,96,30.16,10.0,NE,4.6,-,N/A,,Clear,40,2012-10-05 01:53:00
10:53 PM,70.0,69.1,97,30.15,10.0,Calm,Calm,-,N/A,,Clear,0,2012-10-05 02:53:00
11:53 PM,70.0,69.1,97,30.15,10.0,Calm,Calm,-,N/A,,Clear,0,2012-10-05 03:53:00